H1 CPF 2 NER 2025 3 13 9 072 01 glonass137 H2 1705501 9137 42939 2025 3 13 0 0 0 2025 3 16 23 45 0 900 1 1 0 0 0 1 H9 10 0 60747 0.00000 0 -16406937.902 -397348.937 19526975.790 10 0 60747 900.00000 0 -18327798.295 -1651080.306 17661360.095 10 0 60747 1800.00000 0 -20118108.721 -2635883.112 15452629.004 10 0 60747 2700.00000 0 -21715709.145 -3358069.302 12943615.144 10 0 60747 3600.00000 0 -23062955.621 -3835796.971 10183012.600 10 0 60747 4500.00000 0 -24109091.646 -4098050.319 7224434.537 10 0 60747 5400.00000 0 -24812351.923 -4183160.725 4125372.151 10 0 60747 6300.00000 0 -25141709.458 -4136931.942 946075.109 10 0 60747 7200.00000 0 -25078191.708 -4010449.347 -2251624.395 10 0 60747 8100.00000 0 -24615709.551 -3857666.871 -5405520.521 10 0 60747 9000.00000 0 -23761363.403 -3732874.794 -8454251.263 10 0 60747 9900.00000 0 -22535213.005 -3688156.868 -11338499.884 10 0 60747 10800.00000 0 -20969520.167 -3770945.663 -14002155.967 10 0 60747 11700.00000 0 -19107496.173 -4021780.879 -16393412.748 10 0 60747 12600.00000 0 -17001606.500 -4472366.578 -18465778.689 10 0 60747 13500.00000 0 -14711504.182 -5144010.492 -20178983.337 10 0 60747 14400.00000 0 -12301678.598 -6046512.117 -21499759.795 10 0 60747 15300.00000 0 -9838918.287 -7177547.232 -22402488.795 10 0 60747 16200.00000 0 -7389693.800 -8522575.305 -22869692.307 10 0 60747 17100.00000 0 -5017569.645 -10055274.195 -22892367.648 10 0 60747 18000.00000 0 -2780752.772 -11738484.291 -22470156.195 10 0 60747 18900.00000 0 -729879.030 -13525622.881 -21611344.023 10 0 60747 19800.00000 0 1093871.266 -15362509.856 -20332694.936 10 0 60747 20700.00000 0 2660251.409 -17189528.624 -18659119.485 10 0 60747 21600.00000 0 3950959.900 -18944032.115 -16623186.633 10 0 60747 22500.00000 0 4960145.066 -20562893.524 -14264487.646 10 0 60747 23400.00000 0 5694383.319 -21985095.278 -11628864.584 10 0 60747 24300.00000 0 6172133.753 -23154248.125 -8767518.366 10 0 60747 25200.00000 0 6422693.622 -24020935.070 -5736013.674 10 0 60747 26100.00000 0 6484700.101 -24544782.132 -2593200.052 10 0 60747 27000.00000 0 6404242.706 -24696169.332 599929.816 10 0 60747 27900.00000 0 6232666.989 -24457510.323 3781422.441 10 0 60747 28800.00000 0 6024162.968 -23824047.119 6889563.433 10 0 60747 29700.00000 0 5833240.663 -22804126.701 9864071.678 10 0 60747 30600.00000 0 5712199.710 -21418947.863 12647264.716 10 0 60747 31500.00000 0 5708700.086 -19701788.810 15185172.883 10 0 60747 32400.00000 0 5863536.599 -17696747.540 17428580.947 10 0 60747 33300.00000 0 6208711.133 -15457047.206 19333977.564 10 0 60747 34200.00000 0 6765884.079 -13042976.613 20864394.630 10 0 60747 35100.00000 0 7545270.539 -10519550.913 21990120.927 10 0 60747 36000.00000 0 8545028.300 -7953988.974 22689276.749 10 0 60747 36900.00000 0 9751164.186 -5413111.368 22948238.785 10 0 60747 37800.00000 0 11137963.846 -2960766.093 22761907.244 10 0 60747 38700.00000 0 12668928.320 -655387.921 22133809.986 10 0 60747 39600.00000 0 14298179.641 1452208.119 21076041.303 10 0 60747 40500.00000 0 15972278.109 3320708.263 19609035.939 10 0 60747 41400.00000 0 17632376.529 4919778.976 17761181.882 10 0 60747 42300.00000 0 19216622.359 6231082.300 15568278.508 10 0 60747 43200.00000 0 20662707.917 7248785.722 13072849.618 10 0 60747 44100.00000 0 21910462.149 7979545.704 10323323.777 10 0 60747 45000.00000 0 22904375.162 8441965.977 7373097.254 10 0 60747 45900.00000 0 23595949.093 8665553.912 4279497.332 10 0 60747 46800.00000 0 23945775.732 8689219.488 1102666.104 10 0 60747 47700.00000 0 23925252.554 8559380.928 -2095613.259 10 0 60747 48600.00000 0 23517863.840 8327757.921 -5253124.319 10 0 60747 49500.00000 0 22719971.910 8048946.797 -8308435.007 10 0 60747 50400.00000 0 21541084.231 7777881.393 -11202100.397 10 0 60747 51300.00000 0 20003584.408 7567288.288 -13877826.298 10 0 60747 52200.00000 0 18141937.849 7465245.263 -16283570.244 10 0 60747 53100.00000 0 16001405.178 7512947.364 -18372557.773 10 0 60747 54000.00000 0 13636317.257 7742775.909 -20104193.933 10 0 60747 54900.00000 0 11107984.046 8176752.762 -21444852.210 10 0 60747 55800.00000 0 8482324.790 8825445.654 -22368525.716 10 0 60747 56700.00000 0 5827318.475 9687371.075 -22857328.431 10 0 60747 57600.00000 0 3210380.651 10748920.161 -22901837.301 10 0 60747 58500.00000 0 695775.585 11984810.871 -22501269.143 10 0 60747 59400.00000 0 -1657829.207 13359047.607 -21663489.524 10 0 60747 60300.00000 0 -3799565.183 14826348.135 -20404853.938 10 0 60747 61200.00000 0 -5688231.216 16333978.088 -18749884.717 10 0 60747 62100.00000 0 -7293751.870 17823916.250 -16730790.198 10 0 60747 63000.00000 0 -8598166.293 19235260.020 -14386835.579 10 0 60747 63900.00000 0 -9596108.139 20506770.281 -11763577.700 10 0 60747 64800.00000 0 -10294758.201 21579449.113 -8911978.595 10 0 60747 65700.00000 0 -10713273.477 22399042.272 -5887414.972 10 0 60747 66600.00000 0 -10881718.226 22918361.498 -2748602.891 10 0 60747 67500.00000 0 -10839543.407 23099329.180 443541.452 10 0 60747 68400.00000 0 -10633679.736 22914659.544 3627082.677 10 0 60747 69300.00000 0 -10316325.691 22349105.744 6740265.858 10 0 60747 70200.00000 0 -9942524.497 21400220.382 9722711.579 10 0 60747 71100.00000 0 -9567632.757 20078597.401 12516583.292 10 0 60747 72000.00000 0 -9244787.819 18407584.882 15067704.470 10 0 60747 72900.00000 0 -9022480.788 16422480.350 17326604.277 10 0 60747 73800.00000 0 -8942337.483 14169241.611 19249471.920 10 0 60747 74700.00000 0 -9037200.852 11702766.171 20799001.745 10 0 60747 75600.00000 0 -9329595.601 9084810.055 21945113.302 10 0 60747 76500.00000 0 -9830639.864 6381631.547 22665532.995 10 0 60747 77400.00000 0 -10539450.089 3661456.722 22946226.436 10 0 60747 78300.00000 0 -11443064.846 991870.870 22781673.392 10 0 60747 79200.00000 0 -12516891.707 -1562757.086 22174979.919 10 0 60747 80100.00000 0 -13725659.598 -3943711.255 21137825.221 10 0 60747 81000.00000 0 -15024837.939 -6100126.308 19690243.652 10 0 60747 81900.00000 0 -16362464.308 -7990855.323 17860245.273 10 0 60747 82800.00000 0 -17681305.057 -9585930.829 15683281.391 10 0 60747 83700.00000 0 -18921259.059 -10867558.666 13201564.449 10 0 60747 84600.00000 0 -20021904.141 -11830603.571 10463254.580 10 0 60747 85500.00000 0 -20925079.266 -12482546.548 7521527.938 10 0 60748 0.00000 0 -21577393.495 -12842916.239 4433544.764 10 0 60748 900.00000 0 -21932555.725 -12942218.835 1259335.492 10 0 60748 1800.00000 0 -21953425.285 -12820411.860 -1939369.000 10 0 60748 2700.00000 0 -21613696.963 -12524987.635 -5100345.186 10 0 60748 3600.00000 0 -20899147.306 -12108747.787 -8162094.337 10 0 60748 4500.00000 0 -19808388.869 -11627364.217 -11065046.591 10 0 60748 5400.00000 0 -18353099.542 -11136830.733 -13752727.020 10 0 60748 6300.00000 0 -16557716.442 -10690914.269 -16172860.206 10 0 60748 7200.00000 0 -14458606.607 -10338714.468 -18278391.151 10 0 60748 8100.00000 0 -12102748.864 -10122435.622 -20028402.332 10 0 60748 9000.00000 0 -9545981.779 -10075465.720 -21388909.001 10 0 60748 9900.00000 0 -6850890.841 -10220844.065 -22333517.437 10 0 60748 10800.00000 0 -4084422.881 -10570182.288 -22843933.791 10 0 60748 11700.00000 0 -1315326.956 -11123084.240 -22910314.180 10 0 60748 12600.00000 0 1388472.082 -11867089.085 -22531449.838 10 0 60748 13500.00000 0 3962458.615 -12778139.841 -21714784.308 10 0 60748 14400.00000 0 6347963.172 -13821557.513 -20476262.839 10 0 60748 15300.00000 0 8494350.825 -14953479.748 -18840017.272 10 0 60748 16200.00000 0 10360871.232 -16122703.461 -16837892.768 10 0 60748 17100.00000 0 11918094.708 -17272853.973 -14508825.678 10 0 60748 18000.00000 0 13148875.932 -18344789.496 -11898084.651 10 0 60748 18900.00000 0 14048806.713 -19279139.893 -9056389.710 10 0 60748 19800.00000 0 14626140.525 -20018873.005 -6038926.361 10 0 60748 20700.00000 0 14901193.576 -20511780.595 -2904273.904 10 0 60748 21600.00000 0 14905249.047 -20712779.297 286731.218 10 0 60748 22500.00000 0 14679011.911 -20585929.745 3472174.890 10 0 60748 23400.00000 0 14270680.434 -20106088.792 6590264.637 10 0 60748 24300.00000 0 13733716.466 -19260125.184 9580525.470 10 0 60748 25200.00000 0 13124409.052 -18047647.303 12384969.146 10 0 60748 26100.00000 0 12499334.388 -16481212.027 14949214.305 10 0 60748 27000.00000 0 11912819.279 -14586005.358 17223536.105 10 0 60748 27900.00000 0 11414514.856 -12399007.433 19163825.477 10 0 60748 28800.00000 0 11047182.560 -9967675.891 20732439.936 10 0 60748 29700.00000 0 10844785.347 -7348201.422 21898930.078 10 0 60748 30600.00000 0 10830964.251 -4603406.898 22640628.256 10 0 60748 31500.00000 0 11017964.363 -1800376.174 22943088.449 10 0 60748 32400.00000 0 11406055.586 992090.282 22800369.041 10 0 60748 33300.00000 0 11983472.957 3706088.635 22215153.025 10 0 60748 34200.00000 0 12726879.783 6277186.526 21198702.968 10 0 60748 35100.00000 0 13602335.009 8646853.671 19770651.059 10 0 60748 36000.00000 0 14566725.209 10764648.147 17958627.471 10 0 60748 36900.00000 0 15569601.980 12590068.083 15797733.319 10 0 60748 37800.00000 0 16555348.299 14093992.115 13329867.449 10 0 60748 38700.00000 0 17465583.282 15259648.902 10602919.212 10 0 60748 39600.00000 0 18241704.280 16083075.401 7669842.215 10 0 60748 40500.00000 0 18827459.035 16573045.016 4587626.596 10 0 60748 41400.00000 0 19171438.877 16750468.995 1416189.719 10 0 60748 42300.00000 0 19229386.879 16647296.719 -1782792.892 10 0 60748 43200.00000 0 18966222.413 16304961.882 -4947093.052 10 0 60748 44100.00000 0 18357695.375 15772440.915 -8015147.664 10 0 60748 45000.00000 0 17391598.950 15104006.578 -10927264.020 10 0 60748 45900.00000 0 16068488.514 14356772.692 -13626788.297 10 0 60748 46800.00000 0 14401875.268 13588134.754 -16061213.707 10 0 60748 47700.00000 0 12417885.505 12853215.573 -18183206.026 10 0 60748 48600.00000 0 10154399.091 12202424.586 -19951526.241 10 0 60748 49500.00000 0 7659702.696 11679234.447 -21331832.256 10 0 60748 50400.00000 0 4990713.725 11318268.991 -22297344.219 10 0 60748 51300.00000 0 2210848.787 11143783.229 -22829360.989 10 0 60748 52200.00000 0 -612374.760 11168599.182 -22917618.207 10 0 60748 53100.00000 0 -3409904.654 11393542.043 -22560481.644 10 0 60748 54000.00000 0 -6113780.726 11807399.866 -21764972.655 10 0 60748 54900.00000 0 -8659714.504 12387408.012 -20546625.753 10 0 60748 55800.00000 0 -10989514.946 13100237.446 -18929181.427 10 0 60748 56700.00000 0 -13053260.466 13903444.904 -16944120.453 10 0 60748 57600.00000 0 -14811128.044 14747323.568 -14630048.779 10 0 60748 58500.00000 0 -16234804.508 15577076.082 -12031945.032 10 0 60748 59400.00000 0 -17308422.544 16335218.249 -9200285.171 10 0 60748 60300.00000 0 -18028983.822 16964112.024 -6190061.276 10 0 60748 61200.00000 0 -18406252.997 17408520.980 -3059713.536 10 0 60748 62100.00000 0 -18462128.472 17618080.444 130003.785 10 0 60748 63000.00000 0 -18229517.654 17549578.082 3317200.339 10 0 60748 63900.00000 0 -17750765.114 17168948.685 6440048.650 10 0 60748 64800.00000 0 -17075700.710 16452898.896 9437980.730 10 0 60748 65700.00000 0 -16259390.474 15390093.173 12252859.239 10 0 60748 66600.00000 0 -15359685.376 13981850.666 14830100.544 10 0 60748 67500.00000 0 -14434671.278 12242323.113 17119728.281 10 0 60748 68400.00000 0 -13540127.271 10198145.464 19077337.452 10 0 60748 69300.00000 0 -12727099.076 7887572.837 20664950.880 10 0 60748 70200.00000 0 -12039689.082 5359138.634 21851752.086 10 0 60748 71100.00000 0 -11513155.513 2669888.376 22614680.928 10 0 60748 72000.00000 0 -11172400.192 -116738.701 22938880.921 10 0 60748 72900.00000 0 -11030908.198 -2933293.701 22817989.824 10 0 60748 73800.00000 0 -11090183.956 -5710870.307 22254267.862 10 0 60748 74700.00000 0 -11339707.653 -8381720.529 21258560.784 10 0 60748 75600.00000 0 -11757414.278 -10881826.588 19850097.938 10 0 60748 76500.00000 0 -12310675.757 -13153323.083 18056128.443 10 0 60748 77400.00000 0 -12957745.586 -15146669.414 15911401.596 10 0 60748 78300.00000 0 -13649605.797 -16822482.520 13457500.594 10 0 60748 79200.00000 0 -14332138.991 -18152953.801 10742041.591 10 0 60748 80100.00000 0 -14948534.077 -19122791.167 7817752.932 10 0 60748 81000.00000 0 -15441824.157 -19729646.874 4741452.001 10 0 60748 81900.00000 0 -15757448.929 -19984013.389 1572939.442 10 0 60748 82800.00000 0 -15845732.586 -19908591.846 -1626167.487 10 0 60748 83700.00000 0 -15664171.402 -19537160.122 -4793639.190 10 0 60748 84600.00000 0 -15179433.057 -18912988.817 -7867851.455 10 0 60748 85500.00000 0 -14368981.839 -18086872.692 -10788991.948 10 0 60749 0.00000 0 -13222259.853 -17114861.662 -13500230.853 10 0 60749 900.00000 0 -11741372.426 -16055787.476 -15948833.461 10 0 60749 1800.00000 0 -9941249.283 -14968692.726 -18087188.793 10 0 60749 2700.00000 0 -7849271.708 -13910269.669 -19873738.710 10 0 60749 3600.00000 0 -5504381.943 -12932418.673 -21273785.683 10 0 60749 4500.00000 0 -2955710.980 -12080028.932 -22260165.141 10 0 60749 5400.00000 0 -260781.610 -11389074.978 -22813769.487 10 0 60749 6300.00000 0 2516638.704 -10885108.745 -22923914.157 10 0 60749 7200.00000 0 5308946.142 -10582210.073 -22588539.184 10 0 60749 8100.00000 0 8047270.253 -10482439.032 -21814242.964 10 0 60749 9000.00000 0 10664098.830 -10575812.263 -20616148.048 10 0 60749 9900.00000 0 13095849.434 -10840803.446 -19017601.963 10 0 60749 10800.00000 0 15285281.448 -11245346.039 -17049719.094 10 0 60749 11700.00000 0 17183649.264 -11748295.347 -14750772.644 10 0 60749 12600.00000 0 18752507.955 -12301287.741 -12165448.509 10 0 60749 13500.00000 0 19965097.328 -12850918.190 -9343975.547 10 0 60749 14400.00000 0 20807247.826 -13341143.938 -6341149.080 10 0 60749 15300.00000 0 21277771.666 -13715812.625 -3215266.627 10 0 60749 16200.00000 0 21388324.109 -13921207.978 -26996.578 10 0 60749 17100.00000 0 21162741.921 -13908505.418 3161798.193 10 0 60749 18000.00000 0 20635887.860 -13636033.784 6289258.791 10 0 60749 18900.00000 0 19852050.679 -13071247.526 9294727.589 10 0 60749 19800.00000 0 18862968.579 -12192325.923 12119921.137 10 0 60749 20700.00000 0 17725559.686 -10989331.529 14710056.093 10 0 60749 21600.00000 0 16499455.100 -9464878.537 17014906.660 10 0 60749 22500.00000 0 15244438.127 -7634282.151 18989773.485 10 0 60749 23400.00000 0 14017896.933 -5525181.696 20596345.778 10 0 60749 24300.00000 0 12872397.082 -3176651.947 21803440.558 10 0 60749 25200.00000 0 11853475.202 -637838.346 22587605.288 10 0 60749 26100.00000 0 10997745.746 2033828.601 22933572.666 10 0 60749 27000.00000 0 10331399.671 4774767.054 22834559.042 10 0 60749 27900.00000 0 9869157.594 7517638.668 22292400.692 10 0 60749 28800.00000 0 9613721.138 10193906.479 21317525.007 10 0 60749 29700.00000 0 9555745.486 12736450.947 19928756.639 10 0 60749 30600.00000 0 9674334.477 15082136.554 18152961.529 10 0 60749 31500.00000 0 9938037.774 17174222.960 16024534.800 10 0 60749 32400.00000 0 10306308.488 18964520.870 13584741.475 10 0 60749 33300.00000 0 10731360.209 20415202.949 10880921.835 10 0 60749 34200.00000 0 11160345.232 21500194.178 7965576.187 10 0 60749 35100.00000 0 11537761.978 22206083.408 4895346.315 10 0 60749 36000.00000 0 11807989.461 22532517.792 1729913.282 10 0 60749 36900.00000 0 11917840.958 22492063.534 -1469166.740 10 0 60749 37800.00000 0 11819027.849 22109538.904 -4639665.442 10 0 60749 38700.00000 0 11470428.176 21420847.933 -7719900.005 10 0 60749 39600.00000 0 10840062.602 20471364.431 -10649940.723 10 0 60749 40500.00000 0 9906692.827 19313935.134 -13372784.205 10 0 60749 41400.00000 0 8660973.552 18006586.952 -15835468.489 10 0 60749 42300.00000 0 7106108.112 16610035.745 -17990107.674 10 0 60749 43200.00000 0 5257979.034 15185102.352 -19794825.549 10 0 60749 44100.00000 0 3144746.995 13790145.165 -21214569.967 10 0 60749 45000.00000 0 805934.210 12478617.583 -22221792.217 10 0 60749 45900.00000 0 -1708970.090 11296853.035 -22796978.630 10 0 60749 46800.00000 0 -4342324.431 10282170.254 -22929024.586 10 0 60749 47700.00000 0 -7030494.916 9461377.754 -22615444.268 10 0 60749 48600.00000 0 -9706270.613 8849739.408 -21862412.686 10 0 60749 49500.00000 0 -12301434.545 8450443.439 -20684639.659 10 0 60749 50400.00000 0 -14749383.833 8254595.995 -19105078.609 10 0 60749 51300.00000 0 -16987690.660 8241738.357 -17154476.048 10 0 60749 52200.00000 0 -18960498.235 8380864.918 -14870770.630 10 0 60749 53100.00000 0 -20620652.709 8631898.081 -12298353.491 10 0 60749 54000.00000 0 -21931483.126 8947557.074 -9487204.182 10 0 60749 54900.00000 0 -22868156.059 9275541.191 -6491918.962 10 0 60749 55800.00000 0 -23418549.310 9560934.776 -3370650.319 10 0 60749 56700.00000 0 -23583609.178 9748731.989 -183978.378 10 0 60749 57600.00000 0 -23377177.341 9786374.385 3006263.869 10 0 60749 58500.00000 0 -22825295.546 9626193.856 6138188.551 10 0 60749 59400.00000 0 -21965018.156 9227657.517 9151050.835 10 0 60749 60300.00000 0 -20842783.042 8559319.500 11986423.616 10 0 60749 61200.00000 0 -19512409.672 7600396.971 14589326.254 10 0 60749 62100.00000 0 -18032808.669 6341903.498 16909285.833 10 0 60749 63000.00000 0 -16465498.812 4787291.345 18901310.815 10 0 60749 63900.00000 0 -14872035.372 2952574.811 20526758.730 10 0 60749 64800.00000 0 -13311456.988 865928.254 21754081.740 10 0 60749 65700.00000 0 -11837857.343 -1433225.852 22559436.216 10 0 60749 66600.00000 0 -10498182.542 -3895602.314 22927144.964 10 0 60749 67500.00000 0 -9330345.608 -6463856.058 22850003.453 10 0 60749 68400.00000 0 -8361736.314 -9074729.111 22329424.130 10 0 60749 69300.00000 0 -7608188.177 -11661454.008 21375415.751 10 0 60749 70200.00000 0 -7073445.523 -14156315.189 20006397.593 10 0 60749 71100.00000 0 -6749152.759 -16493263.074 18248851.356 10 0 60749 72000.00000 0 -6615366.251 -18610472.889 16136816.577 10 0 60749 72900.00000 0 -6641567.374 -20452742.233 13711238.339 10 0 60749 73800.00000 0 -6788134.113 -21973627.636 11019179.007 10 0 60749 74700.00000 0 -7008209.235 -23137230.765 8112908.558 10 0 60749 75600.00000 0 -7249885.962 -23919559.363 5048890.699 10 0 60749 76500.00000 0 -7458618.426 -24309405.529 1886684.289 10 0 60749 77400.00000 0 -7579754.266 -24308704.174 -1312218.311 10 0 60749 78300.00000 0 -7561081.274 -23932356.388 -4485592.896 10 0 60749 79200.00000 0 -7355279.125 -23207525.126 -7571700.918 10 0 60749 80100.00000 0 -6922171.074 -22172433.061 -10510498.223 10 0 60749 81000.00000 0 -6230678.961 -20874713.641 -13244810.532 10 0 60749 81900.00000 0 -5260397.458 -19369385.352 -15721451.977 10 0 60749 82800.00000 0 -4002719.744 -17716535.140 -17892264.200 10 0 60749 83700.00000 0 -2461465.920 -15978809.101 -19715055.402 10 0 60749 84600.00000 0 -652986.612 -14218816.450 -21154420.964 10 0 60749 85500.00000 0 1394263.504 -12496556.160 -22182429.790 10 0 60750 0.00000 0 3640664.964 -10866974.410 -22779163.392 10 0 60750 900.00000 0 6036848.205 -9377754.166 -22933098.012 10 0 60750 1800.00000 0 8525522.085 -8067431.026 -22641322.240 10 0 60750 2700.00000 0 11043644.487 -6963910.484 -21909587.580 10 0 60750 3600.00000 0 13524842.110 -6083449.712 -20752190.577 10 0 60750 4500.00000 0 15901980.282 -5430144.338 -19191689.584 10 0 60750 5400.00000 0 18109776.125 -4995940.412 -17258461.865 10 0 60750 6300.00000 0 20087346.789 -4761169.628 -14990109.737 10 0 60750 7200.00000 0 21780587.112 -4695583.930 -12430727.337 10 0 60750 8100.00000 0 23144278.222 -4759844.717 -9630042.241 10 0 60750 9000.00000 0 24143839.726 -4907402.850 -6642448.563 10 0 60750 9900.00000 0 24756653.015 -5086689.293 -3525950.336 10 0 60750 10800.00000 0 24972901.064 -5243523.195 -341035.748 10 0 60750 11700.00000 0 24795890.385 -5323635.208 2850495.880 10 0 60750 12600.00000 0 24241842.339 -5275198.996 5986731.448 10 0 60750 13500.00000 0 23339163.279 -5051263.664 9006842.525 10 0 60750 14400.00000 0 22127224.629 -4611984.107 11852261.660 10 0 60750 15300.00000 0 20654704.487 -3926554.806 14467813.856 10 0 60750 16200.00000 0 18977560.401 -2974765.159 16802781.594 10 0 60750 17100.00000 0 17156718.188 -1748110.256 18811883.204 10 0 60750 18000.00000 0 15255573.260 -250409.654 20456146.126 10 0 60750 18900.00000 0 13337408.444 1502092.877 21703658.794 10 0 60750 19800.00000 0 11462835.504 3481154.092 22530187.154 10 0 60750 20700.00000 0 9687366.447 5647464.230 22919644.332 10 0 60750 21600.00000 0 8059215.125 7952050.906 22864404.674 10 0 60750 22500.00000 0 6617420.062 10338097.183 22365456.104 10 0 60750 23400.00000 0 5390366.149 12743099.714 21432387.602 10 0 60750 24300.00000 0 4394766.325 15101278.732 20083211.522 10 0 60750 25200.00000 0 3635145.337 17346140.817 18344023.388 10 0 60750 26100.00000 0 3103846.909 19413088.706 16248504.879 10 0 60750 27000.00000 0 2781563.719 21241969.974 13837278.597 10 0 60750 27900.00000 0 2638367.785 22779458.487 11157126.220 10 0 60750 28800.00000 0 2635197.670 23981169.007 8260084.456 10 0 60750 29700.00000 0 2725739.501 24813416.107 5202435.866 10 0 60750 30600.00000 0 2858621.919 25254543.163 2043613.985 10 0 60750 31500.00000 0 2979831.512 25295765.068 -1154955.760 10 0 60750 32400.00000 0 3035245.583 24941488.738 -4331056.289 10 0 60750 33300.00000 0 2973173.982 24209097.580 -7422896.191 10 0 60750 34200.00000 0 2746801.043 23128208.814 -10370319.476 10 0 60750 35100.00000 0 2316422.954 21739434.986 -13115983.294 10 0 60750 36000.00000 0 1651384.477 20092702.048 -15606479.854 10 0 60750 36900.00000 0 731631.866 18245195.183 -17793379.989 10 0 60750 37800.00000 0 -451184.812 16259019.188 -19634177.633 10 0 60750 38700.00000 0 -1893107.518 14198672.092 -21093116.723 10 0 60750 39600.00000 0 -3577790.586 12128438.298 -22141884.519 10 0 60750 40500.00000 0 -5476949.761 10109810.564 -22760158.252 10 0 60750 41400.00000 0 -7551321.776 8199048.520 -22935994.984 10 0 60750 42300.00000 0 -9752094.902 6444975.333 -22666057.716 10 0 60750 43200.00000 0 -12022751.182 4887103.774 -21955673.942 10 0 60750 44100.00000 0 -14301243.932 3554168.870 -20818726.025 10 0 60750 45000.00000 0 -16522420.062 2463127.127 -19277375.957 10 0 60750 45900.00000 0 -18620586.632 1618662.616 -17361630.079 10 0 60750 46800.00000 0 -20532115.019 1013218.968 -15108752.364 10 0 60750 47700.00000 0 -22197974.457 627554.336 -12562537.694 10 0 60750 48600.00000 0 -23566089.630 431794.405 -9772459.233 10 0 60750 49500.00000 0 -24593424.273 386937.804 -6792706.402 10 0 60750 50400.00000 0 -25247704.134 446749.271 -3681132.184 10 0 60750 51300.00000 0 -25508707.705 559959.736 -498130.208 10 0 60750 52200.00000 0 -25369071.155 672679.673 2694536.494 10 0 60750 53100.00000 0 -24834574.263 730923.174 5834932.218 10 0 60750 54000.00000 0 -23923895.810 683135.690 8862147.526 10 0 60750 54900.00000 0 -22667849.043 482618.329 11717477.163 10 0 60750 55800.00000 0 -21108129.521 89746.054 14345554.224 10 0 60750 56700.00000 0 -19295627.825 -526114.056 16695418.880 10 0 60750 57600.00000 0 -17288377.613 -1385065.768 18721501.387 10 0 60750 58500.00000 0 -15149224.472 -2495593.083 20384500.864 10 0 60750 59400.00000 0 -12943312.364 -3853962.676 21652143.428 10 0 60750 60300.00000 0 -10735491.784 -5444145.519 22499805.621 10 0 60750 61200.00000 0 -8587756.848 -7238262.233 22910991.502 10 0 60750 62100.00000 0 -6556817.144 -9197535.061 22877654.506 10 0 60750 63000.00000 0 -4691904.516 -11273708.363 22400357.869 10 0 60750 63900.00000 0 -3032905.304 -13410880.002 21488270.276 10 0 60750 64800.00000 0 -1608895.062 -15547668.854 20158996.306 10 0 60750 65700.00000 0 -437136.245 -17619629.456 18438244.160 10 0 60750 66600.00000 0 477419.788 -19561814.164 16359336.221 10 0 60750 67500.00000 0 1142106.051 -21311376.619 13962570.903 10 0 60750 68400.00000 0 1575989.961 -22810108.086 11294447.244 10 0 60750 69300.00000 0 1808823.576 -24006800.511 8406766.511 10 0 60750 70200.00000 0 1879538.656 -24859336.955 5355627.785 10 0 60750 71100.00000 0 1834350.506 -25336421.090 2200336.801 10 0 60750 72000.00000 0 1724551.412 -25418872.365 -997750.508 10 0 60750 72900.00000 0 1604087.829 -25100431.611 -4176426.823 10 0 60750 73800.00000 0 1527024.931 -24388042.503 -7273850.542 10 0 60750 74700.00000 0 1545007.087 -23301596.502 -10229756.536 10 0 60750 75600.00000 0 1704823.066 -21873151.698 -12986636.073 10 0 60750 76500.00000 0 2046180.360 -20145658.346 -15490862.077 10 0 60750 77400.00000 0 2599784.017 -18171244.795 -17693737.088 10 0 60750 78300.00000 0 3385802.326 -16009136.059 -19552443.100 10 0 60750 79200.00000 0 4412785.128 -13723292.623 -21030874.656 10 0 60750 80100.00000 0 5677081.199 -11379868.692 -22100339.082 10 0 60750 81000.00000 0 7162779.966 -9044596.295 -22740110.602 10 0 60750 81900.00000 0 8842180.606 -6780204.463 -22937828.110 10 0 60750 82800.00000 0 10676769.378 -4643980.821 -22689729.423 10 0 60750 83700.00000 0 12618664.688 -2685576.635 -22000718.093 10 0 60750 84600.00000 0 14612469.836 -945145.814 -20884262.004 10 0 60750 85500.00000 0 16597456.326 548105.749 -19362126.090 99